Alta, CA

6:48 AM PST on February 23, 2017 (GMT -0800)
Blue Canyon-Nyack

Weather History for KBLU - May, 2013

Change the Weather History Date:

Friday, May 24, 2013

  Actual Average Record
Temperature  
Mean Temperature 50 °F -  
Max Temperature 59 °F 64 °F 80 °F (1983)
Min Temperature 44 °F 47 °F 27 °F (1953)
Degree Days  
Heating Degree Days 14    
Moisture  
Dew Point 24 °F    
Average Humidity 38    
Maximum Humidity 59    
Minimum Humidity 17    
Precipitation  
Precipitation 0.00 in - - ()
Sea Level Pressure  
Sea Level Pressure 29.92 in    
Wind  
Wind Speed 3 mph (South)    
Max Wind Speed 12 mph    
Max Gust Speed 17 mph    
Visibility 10 miles    
Events      
Averages and records for this station are not official NWS values.
T = Trace of Precipitation, MM = Missing Value Source: NWS Daily Summary

Daily Weather History Graph

Daily Weather History Graph

Search for Another Location

Airport or City:

Trip Planner

Search our weather history database for the weather conditions in past years. The results will help you decide how hot, cold, wet, or windy it might be!

Date:

Astronomy

May. 24, 2013 Rise Set
Actual Time 5:42 AM PDT 8:17 PM PDT
Civil Twilight 5:11 AM PDT 8:48 PM PDT
Nautical Twilight 4:32 AM PDT 9:27 PM PDT
Astronomical Twilight 3:49 AM PDT 10:11 PM PDT
Moon 8:05 PM PDT (5/24) 5:18 AM PDT (5/24)
Length of Visible Light 15h 37m
Length of Day
14h 35m
Full, 100% of the Moon is Illuminated
May 24
Full
May 24
Full
May 31
Last Quarter
Jun 8
New
Jun 16
First Quarter

Hourly Weather History & Observations

Time (PDT) Temp. Windchill Dew Point Humidity Pressure Visibility Wind Dir Wind Speed Gust Speed Precip Events Conditions
12:52 AM 44.1 °F 42.5 °F 25.0 °F 47% 29.94 in 10.0 mi NNE 3.5 mph - N/A   Clear
1:52 AM 46.0 °F - 19.9 °F 35% 29.93 in 10.0 mi Calm Calm - N/A   Clear
2:52 AM 44.1 °F - 17.1 °F 34% 29.92 in 10.0 mi Calm Calm - N/A   Clear
3:52 AM 46.0 °F - 14.0 °F 28% 29.91 in 10.0 mi Calm Calm - N/A   Clear
4:52 AM 44.1 °F - 23.0 °F 43% 29.91 in 10.0 mi Calm Calm - N/A   Clear
5:52 AM 45.0 °F 43.5 °F 21.9 °F 40% 29.90 in 10.0 mi ESE 3.5 mph - N/A   Clear
6:52 AM 48.0 °F - 18.0 °F 30% 29.90 in 10.0 mi Calm Calm - N/A   Clear
7:52 AM 48.9 °F - 18.0 °F 29% 29.92 in 10.0 mi SSW 4.6 mph - N/A   Clear
8:52 AM 48.9 °F - 23.0 °F 36% 29.94 in 10.0 mi SW 3.5 mph - N/A   Clear
9:52 AM 51.1 °F - 25.0 °F 36% 29.95 in 10.0 mi South 4.6 mph - N/A   Clear
10:52 AM 54.0 °F - 12.9 °F 20% 29.94 in 10.0 mi Variable 3.5 mph - N/A   Clear
11:52 AM 55.9 °F - 10.9 °F 17% 29.94 in 10.0 mi SSE 8.1 mph - N/A   Clear
12:52 PM 57.0 °F - 25.0 °F 29% 29.93 in 10.0 mi South 10.4 mph - N/A   Clear
1:52 PM 57.0 °F - 27.0 °F 32% 29.92 in 10.0 mi SW 11.5 mph 17.3 mph N/A   Clear
2:52 PM 57.9 °F - 28.9 °F 33% 29.93 in 10.0 mi SSW 6.9 mph - N/A   Clear
3:52 PM 57.9 °F - 28.9 °F 33% 29.91 in 10.0 mi SSW 8.1 mph - N/A   Clear
4:52 PM 57.0 °F - 27.0 °F 32% 29.92 in 10.0 mi SW 8.1 mph - N/A   Clear
5:52 PM 55.9 °F - 28.0 °F 34% 29.91 in 10.0 mi SSW 8.1 mph 16.1 mph N/A   Clear
6:52 PM 54.0 °F - 30.0 °F 40% 29.91 in 10.0 mi SSW 5.8 mph - N/A   Clear
7:52 PM 51.1 °F - 33.1 °F 50% 29.92 in 10.0 mi SSW 3.5 mph - N/A   Clear
8:52 PM 50.0 °F - 33.1 °F 52% 29.92 in 10.0 mi Calm Calm - N/A   Clear
9:52 PM 46.9 °F - 33.1 °F 59% 29.93 in 10.0 mi Calm Calm - N/A   Clear
10:52 PM 46.9 °F - 33.1 °F 59% 29.91 in 10.0 mi East 3.5 mph - N/A   Clear
11:52 PM 46.0 °F 44.8 °F 32.0 °F 58% 29.91 in 10.0 mi East 3.5 mph - N/A   Clear